Weather History for Crestview, FL

Change the Weather History Date:

Friday, September 20, 2013

  Actual Average Record
Temperature  
Mean Temperature 79 °F -  
Max Temperature 91 °F 89 °F 100 °F (2010)
Min Temperature 68 °F 65 °F 47 °F (1981)
Cooling Degree Days 14    
Growing Degree Days 29 (Base 50)    
Moisture  
Dew Point 70 °F    
Average Humidity 76    
Maximum Humidity 91    
Minimum Humidity 55    
Precipitation  
Precipitation 0.00 in - - ()
Sea Level Pressure  
Sea Level Pressure 29.97 in    
Wind  
Wind Speed 3 mph (SE)    
Max Wind Speed 12 mph    
Max Gust Speed 18 mph    
Visibility 10 miles    
Events      
Averages and records for this station are not official NWS values.
T = Trace of Precipitation, MM = Missing Value Source: NWS Daily Summary

Daily Weather History Graph

Daily Weather History Graph

Search for Another Location

Airport:

Trip Planner

Search our weather history database for the weather conditions in past years. The results will help you decide how hot, cold, wet, or windy it might be!

Date:

Astronomy

Sep. 20, 2013 Rise Set
Actual Time 6:33 AM CDT 6:44 PM CDT
Civil Twilight 6:09 AM CDT 7:08 PM CDT
Nautical Twilight 5:41 AM CDT 7:37 PM CDT
Astronomical Twilight 5:12 AM CDT 8:05 PM CDT
Moon 7:28 PM CDT (9/20) 7:39 AM CDT (9/20)
Length of Visible Light 12h 59m
Length of Day
12h 11m
Full, 98% of the Moon is Illuminated
Sep 20
Full
Sep 26
Last Quarter
Oct 4
New
Oct 11
First Quarter
Oct 18
Full

Hourly Weather History & Observations

Time (CDT) Temp. Heat Index Dew Point Humidity Pressure Visibility Wind Dir Wind Speed Gust Speed Precip Events Conditions
12:53 AM 72.0 °F - 68.0 °F 87% 30.05 in 10.0 mi ENE 3.5 mph - N/A   Clear
1:53 AM 71.1 °F - 68.0 °F 90% 30.04 in 10.0 mi Calm Calm - N/A   Clear
2:53 AM 70.0 °F - 66.9 °F 90% 30.03 in 10.0 mi Calm Calm - N/A   Clear
3:53 AM 69.1 °F - 66.0 °F 90% 30.02 in 10.0 mi Calm Calm - N/A   Clear
4:53 AM 69.1 °F - 64.9 °F 87% 30.01 in 10.0 mi ENE 4.6 mph - N/A   Clear
5:53 AM 68.0 °F - 64.9 °F 90% 30.02 in 10.0 mi Calm Calm - N/A   Clear
6:53 AM 68.0 °F - 64.9 °F 90% 30.03 in 10.0 mi Calm Calm - N/A   Clear
7:53 AM 72.0 °F - 66.9 °F 84% 30.04 in 10.0 mi Calm Calm - N/A   Clear
8:53 AM 80.1 °F 83.6 °F 71.1 °F 74% 30.03 in 10.0 mi Variable 4.6 mph - N/A   Clear
9:53 AM 84.9 °F 91.4 °F 73.0 °F 67% 30.02 in 10.0 mi East 6.9 mph - N/A   Clear
10:53 AM 86.0 °F 92.2 °F 72.0 °F 63% 30.02 in 10.0 mi Variable 5.8 mph - N/A   Scattered Clouds
11:53 AM 88.0 °F 92.9 °F 70.0 °F 55% 30.00 in 10.0 mi South 6.9 mph - N/A   Scattered Clouds
12:53 PM 89.1 °F 95.0 °F 71.1 °F 55% 29.97 in 10.0 mi South 8.1 mph - N/A   Mostly Cloudy
1:53 PM 88.0 °F 92.9 °F 70.0 °F 55% 29.94 in 10.0 mi SSE 5.8 mph - N/A   Partly Cloudy
2:53 PM 90.0 °F 96.9 °F 72.0 °F 55% 29.91 in 10.0 mi South 11.5 mph - N/A   Mostly Cloudy
3:53 PM 89.1 °F 95.0 °F 71.1 °F 55% 29.91 in 10.0 mi South 10.4 mph 18.4 mph N/A   Scattered Clouds
4:53 PM 86.0 °F 91.5 °F 71.1 °F 61% 29.90 in 10.0 mi South 8.1 mph - N/A   Mostly Cloudy
5:53 PM 84.0 °F 90.2 °F 73.0 °F 69% 29.90 in 10.0 mi South 4.6 mph - N/A   Scattered Clouds
6:53 PM 82.0 °F 87.4 °F 73.0 °F 74% 29.91 in 10.0 mi South 4.6 mph - N/A   Clear
7:53 PM 79.0 °F - 73.0 °F 82% 29.92 in 10.0 mi Calm Calm - N/A   Partly Cloudy
8:53 PM 78.1 °F - 73.9 °F 87% 29.92 in 10.0 mi Calm Calm - 0.00 in   Partly Cloudy
9:53 PM 77.0 °F - 73.0 °F 88% 29.91 in 10.0 mi ESE 3.5 mph - N/A   Clear
10:53 PM 77.0 °F - 73.0 °F 88% 29.91 in 10.0 mi ESE 3.5 mph - N/A   Clear
11:53 PM 75.9 °F - 73.0 °F 91% 29.90 in 10.0 mi Calm Calm - N/A   Clear